Location: Puketoi
(40.5833°S, 176.0167°E)
Time: 14:29:10
(UTC+00:00)

Meteor 1-21 - Pass Details

Date: 08 February 2023
Orbit: 844 x 887 km, 81.2° (Epoch: 22 March)

Event Time Altitude Azimuth Distance (km) Brightness Sun altitude
Exits shadow 14:23:35 84° 123° (ESE) 864 4.1 -28.5°
Drops below altitude 10° 14:29:09 10° 169° (S) 2,506 7.5 -28.0°
Sets 14:31:36 0° 169° (S) 3,453 8.4 -27.7°
